User: anonymous   Login
Location: Unspecified
(0.0000°N, 0.0000°E)
Time: 19:30:11
(UTC+00:00)
Language:

STARLINK-5278 - Orbit

View from above orbital plane
View from above orbital plane
View from above satellite
View from above satellite

Ground track
Ground track

The orbit is defined by the following mean orbital elements,

1 54164U          26145.38897277 +.00000000 +00000-0 +49705-5 0 00002
2 54164  53.2126  20.0113 0001120 112.6588 247.4523 15.08836902    02
Epoch (UTC): 25 May 2026 09:20:07
Eccentricity: 0.0001120
inclination: 53.2126°
perigee height: 539 km
apogee height: 541 km
right ascension of ascending node: 20.0113°
argument of perigee: 112.6588°
revolutions per day: 15.08836902
mean anomaly at epoch: 247.4523°

The dashed part of the orbit path shows where the satellite is in the earth's shadow,  

DLR